W7TRD Weather Reports


time (UTC)temp
F
wind
direction
speed
knots
gust
knots
rain 1hr
in
rain 24hr
in
rain mn
in
humidity
%
barometer
mb
20260503223405 93 175 0.9 3.5 0.00 0.00 0.00 31 1009.2
20260503222859 94 124 0.0 2.6 0.00 0.00 0.00 31 1009.2
20260503222358 93 178 0.0 1.7 0.00 0.00 0.00 29 1009.2
20260503221856 93 184 0.0 2.6 0.00 0.00 0.00 30 1009.5
20260503221354 93 179 0.0 0.9 0.00 0.00 0.00 30 1009.3
20260503220850 93 235 0.9 5.2 0.00 0.00 0.00 30 1009.4
20260503220347 93 180 0.0 0.9 0.00 0.00 0.00 30 1009.6
20260503215844 93 160 0.0 0.9 0.00 0.00 0.00 31 1009.7
20260503215341 92 137 1.7 2.6 0.00 0.00 0.00 31 1009.7
20260503214838 92 103 2.6 3.5 0.00 0.00 0.00 31 1009.8
20260503214336 93 162 1.7 2.6 0.00 0.00 0.00 29 1009.9
20260503213833 92 182 0.0 1.7 0.00 0.00 0.00 33 1009.9
20260503213331 92 116 0.0 5.2 0.00 0.00 0.00 30 1009.9
20260503212827 92 188 0.9 1.7 0.00 0.00 0.00 31 1010.0
20260503212326 91 311 1.7 2.6 0.00 0.00 0.00 32 1010.1
20260503211823 92 178 0.9 2.6 0.00 0.00 0.00 33 1010.1
20260503211319 91 119 0.9 2.6 0.00 0.00 0.00 33 1010.0
20260503210819 91 185 0.9 1.7 0.00 0.00 0.00 35 1010.3
20260503210317 91 194 0.9 2.6 0.00 0.00 0.00 34 1010.4
20260503205812 91 170 0.9 0.9 0.00 0.00 0.00 34 1010.3
20260503205309 90 222 1.7 2.6 0.00 0.00 0.00 35 1010.3
20260503204805 89 201 1.7 2.6 0.00 0.00 0.00 35 1010.4
20260503204303 89 175 1.7 2.6 0.00 0.00 0.00 36 1010.6
20260503203800 90 197 2.6 2.6 0.00 0.00 0.00 35 1010.7
20260503203257 90 172 0.9 1.7 0.00 0.00 0.00 40 1010.6
20260503202754 88 193 0.9 2.6 0.00 0.00 0.00 38 1010.8
20260503202252 87 193 1.7 2.6 0.00 0.00 0.00 38 1010.8
20260503201750 87 197 1.7 2.6 0.00 0.00 0.00 39 1011.0
20260503201247 87 195 2.6 5.2 0.00 0.00 0.00 40 1010.8
20260503200744 86 182 0.9 2.6 0.00 0.00 0.00 42 1011.0
20260503200240 87 189 2.6 3.5 0.00 0.00 0.00 42 1011.0
20260503195737 87 186 1.7 2.6 0.00 0.00 0.00 42 1011.1
20260503195233 86 183 0.9 1.7 0.00 0.00 0.00 43 1011.2
20260503194732 86 182 1.7 1.7 0.00 0.00 0.00 44 1011.4
20260503194227 85 173 0.9 1.7 0.00 0.00 0.00 45 1011.3
20260503193723 85 178 0.9 2.6 0.00 0.00 0.00 43 1011.3
20260503193219 84 174 0.9 1.7 0.00 0.00 0.00 45 1011.3
20260503192715 83 167 0.9 2.6 0.00 0.00 0.00 46 1011.4
20260503192210 84 172 2.6 5.2 0.00 0.00 0.00 43 1011.4
20260503191707 83 158 1.7 3.5 0.00 0.00 0.00 45 1011.6
20260503191205 83 177 0.9 1.7 0.00 0.00 0.00 45 1011.7
20260503190701 83 174 0.9 1.7 0.00 0.00 0.00 46 1011.8
20260503190158 82 167 0.9 1.7 0.00 0.00 0.00 46 1011.8
20260503185655 82 174 0.9 1.7 0.00 0.00 0.00 48 1011.8
20260503185150 81 175 0.0 2.6 0.00 0.00 0.00 49 1011.7
20260503184645 82 172 0.0 1.7 0.00 0.00 0.00 48 1011.8
20260503184142 81 164 0.9 2.6 0.00 0.00 0.00 48 1011.9
20260503183638 80 174 0.9 5.2 0.00 0.00 0.00 51 1011.9
20260503183136 81 173 0.9 0.9 0.00 0.00 0.00 47 1012.2
20260503182634 80 172 1.7 2.6 0.00 0.00 0.00 48 1012.2
20260503182132 80 171 0.0 1.7 0.00 0.00 0.00 48 1012.2
20260503181629 79 164 1.7 2.6 0.00 0.00 0.00 48 1012.4
20260503181126 78 170 0.0 0.9 0.00 0.00 0.00 53 1012.4
20260503180622 78 172 0.9 1.7 0.00 0.00 0.00 51 1012.5
20260503180120 78 167 0.0 1.7 0.00 0.00 0.00 52 1012.4
20260503175617 79 171 0.9 1.7 0.00 0.00 0.00 52 1012.5
20260503175114 77 164 0.9 2.6 0.00 0.00 0.00 54 1012.4
20260503174611 77 172 1.7 2.6 0.00 0.00 0.00 54 1012.5
20260503174108 76 169 0.0 2.6 0.00 0.00 0.00 53 1012.7
20260503173603 75 172 0.9 1.7 0.00 0.00 0.00 57 1012.7
20260503173059 75 171 0.9 1.7 0.00 0.00 0.00 55 1012.5
20260503172557 74 168 0.0 1.7 0.00 0.00 0.00 56 1012.7
20260503172054 74 171 1.7 2.6 0.00 0.00 0.00 56 1012.8
20260503171550 73 168 0.0 0.9 0.00 0.00 0.00 59 1012.9
20260503171048 72 170 1.7 2.6 0.00 0.00 0.00 60 1012.7
20260503170544 73 170 1.7 2.6 0.00 0.00 0.00 59 1012.9
20260503150937 65 169 0.0 0.9 0.00 0.00 0.00 75 1013.5
20260503150433 64 169 0.9 0.9 0.00 0.00 0.00 77 1013.3
20260503131326 51 171 0.0 0.0 0.00 0.00 0.00 99 1012.9
20260503130824 51 171 0.0 0.0 0.00 0.00 0.00 99 1012.9
20260503130321 51 170 0.0 0.0 0.00 0.00 0.00 99 1013.0
20260503110714 53 183 0.0 0.0 0.00 0.00 0.00 97 1013.3
20260503110212 53 183 0.0 0.0 0.00 0.00 0.00 97 1013.2
20260503100138 55 176 0.0 0.0 0.00 0.00 0.00 94 1013.3
20260503081533 57 167 0.0 0.0 0.00 0.00 0.00 89 1013.3
20260503081030 57 167 0.0 0.0 0.00 0.00 0.00 89 1013.3
20260503080526 58 167 0.0 0.0 0.00 0.00 0.00 89 1013.3
20260503072500 59 167 0.0 0.0 0.00 0.00 0.00 87 1013.7
20260503071957 59 167 0.0 0.0 0.00 0.00 0.00 85 1013.5
20260503071454 59 167 0.0 0.0 0.00 0.00 0.00 86 1013.4
20260503070950 59 171 0.0 0.0 0.00 0.00 0.00 85 1013.5
20260503070447 59 180 0.0 0.0 0.00 0.00 0.00 85 1013.4
20260503054906 62 175 0.0 0.9 0.00 0.00 0.00 79 1013.3
20260503054402 62 170 0.0 0.0 0.00 0.00 0.00 79 1013.4
20260503053900 62 177 0.0 0.0 0.00 0.00 0.00 79 1013.4
20260503053358 62 177 0.0 0.0 0.00 0.00 0.00 79 1013.7
20260503052854 62 174 0.0 0.0 0.00 0.00 0.00 79 1013.4
20260503052351 63 176 0.0 0.0 0.00 0.00 0.00 78 1013.7
20260503051847 63 176 0.0 0.0 0.00 0.00 0.00 78 1013.9
20260503051344 63 173 0.0 0.0 0.00 0.00 0.00 77 1014.0
20260503050841 63 175 0.0 0.0 0.00 0.00 0.00 77 1013.7
20260503050337 63 176 0.0 0.0 0.00 0.00 0.00 77 1013.6
20260503045835 64 177 0.0 0.0 0.00 0.00 0.00 76 1013.8
20260503045332 64 174 0.0 0.0 0.00 0.00 0.00 75 1013.7
20260503044828 64 164 0.0 0.0 0.00 0.00 0.00 75 1013.8
20260503044325 64 165 0.0 0.0 0.00 0.00 0.00 75 1013.6
20260503043822 64 172 0.0 1.7 0.00 0.00 0.00 75 1013.6
20260503043319 64 161 0.0 0.9 0.00 0.00 0.00 75 1013.6
20260503042815 64 167 0.0 0.9 0.00 0.00 0.00 74 1013.7
20260503042313 64 163 0.0 0.0 0.00 0.00 0.00 75 1013.6
20260503041808 64 164 0.0 0.0 0.00 0.00 0.00 74 1013.8
20260503041306 65 166 0.0 0.9 0.00 0.00 0.00 73 1013.6
20260503040804 65 148 0.0 1.7 0.00 0.00 0.00 73 1013.7
20260503040301 65 147 0.9 0.9 0.00 0.00 0.00 72 1013.8
20260503035757 65 157 0.9 1.7 0.00 0.00 0.00 73 1013.7
20260503035255 65 134 0.9 2.6 0.00 0.00 0.00 72 1013.5
20260503034752 66 136 1.7 1.7 0.00 0.00 0.00 72 1013.5
20260503034249 66 123 0.9 2.6 0.00 0.00 0.00 72 1013.6
20260503033747 66 153 0.9 0.9 0.00 0.00 0.00 72 1013.5
20260503033244 66 98 0.9 1.7 0.00 0.00 0.00 72 1013.5
20260503032742 66 162 1.7 2.6 0.00 0.00 0.00 71 1013.2
20260503032241 66 174 0.0 0.9 0.00 0.00 0.00 71 1013.3
20260503031737 67 172 0.9 2.6 0.00 0.00 0.00 70 1013.1
20260503031235 67 165 1.7 6.1 0.00 0.00 0.00 70 1013.1
20260503030731 67 160 1.7 1.7 0.00 0.00 0.00 69 1013.0
20260503030228 68 163 1.7 3.5 0.00 0.00 0.00 68 1012.9
20260503025725 68 146 0.0 3.5 0.00 0.00 0.00 68 1012.9
20260503025222 69 142 0.9 5.2 0.00 0.00 0.00 66 1013.0
20260503024719 70 244 2.6 5.2 0.00 0.00 0.00 64 1012.7
20260503024216 71 138 1.7 3.5 0.00 0.00 0.00 63 1012.7
20260503023713 71 174 0.9 3.5 0.00 0.00 0.00 63 1012.8
20260503023210 73 173 1.7 3.5 0.00 0.00 0.00 61 1012.5
20260503022706 73 183 1.7 3.5 0.00 0.00 0.00 60 1012.8
20260503022205 74 187 1.7 1.7 0.00 0.00 0.00 59 1012.5
20260503021703 76 155 0.9 0.9 0.00 0.00 0.00 57 1012.2
20260503021159 78 191 1.7 2.6 0.00 0.00 0.00 55 1012.1
20260503020656 78 186 0.0 0.9 0.00 0.00 0.00 52 1012.0
20260503020154 78 180 0.0 0.9 0.00 0.00 0.00 53 1011.9
20260503015650 78 273 0.9 1.7 0.00 0.00 0.00 53 1012.0
20260503015147 78 189 0.0 0.9 0.00 0.00 0.00 52 1012.1
20260503014643 78 169 0.0 0.9 0.00 0.00 0.00 53 1011.9
20260503014141 78 224 2.6 3.5 0.00 0.00 0.00 54 1011.9
20260503013638 78 179 0.0 0.9 0.00 0.00 0.00 55 1011.9
20260503013136 78 176 0.0 0.9 0.00 0.00 0.00 54 1012.0
20260503012633 78 180 0.0 0.9 0.00 0.00 0.00 53 1011.8
20260503012130 78 276 1.7 2.6 0.00 0.00 0.00 54 1011.8
20260503011626 78 269 0.9 1.7 0.00 0.00 0.00 54 1011.8
20260503011124 78 166 0.0 0.9 0.00 0.00 0.00 54 1011.9
20260503010620 78 193 0.9 1.7 0.00 0.00 0.00 54 1011.9
20260503010117 77 202 0.0 0.9 0.00 0.00 0.00 54 1011.8
20260503005614 77 187 1.7 2.6 0.00 0.00 0.00 54 1012.0
20260503005111 78 133 0.0 1.7 0.00 0.00 0.00 53 1011.9
20260503004607 78 182 0.9 1.7 0.00 0.00 0.00 52 1012.1
20260503004106 77 253 0.0 1.7 0.00 0.00 0.00 54 1011.9
20260503003602 78 153 0.9 0.9 0.00 0.00 0.00 53 1012.0
20260503003059 78 174 1.7 2.6 0.00 0.00 0.00 53 1011.9
20260503002556 78 193 0.9 1.7 0.00 0.00 0.00 53 1012.0
20260503002053 77 178 0.0 0.9 0.00 0.00 0.00 55 1011.9
20260503001549 77 236 1.7 1.7 0.00 0.00 0.00 53 1011.8
20260503001047 76 173 0.0 0.9 0.00 0.00 0.00 55 1012.0
20260503000544 76 213 0.9 2.6 0.00 0.00 0.00 56 1012.2
20260503000041 76 181 0.9 1.7 0.00 0.00 0.00 55 1012.0
20260502235537 77 176 0.0 0.9 0.00 0.00 0.00 54 1012.2
20260502235036 77 180 0.0 1.7 0.00 0.00 0.00 55 1012.2
20260502234531 77 111 1.7 1.7 0.00 0.00 0.00 54 1012.2
20260502234029 75 147 0.9 1.7 0.00 0.00 0.00 56 1012.3
20260502233529 74 187 1.7 1.7 0.00 0.00 0.00 57 1012.4
20260502233027 74 159 1.7 3.5 0.00 0.00 0.00 58 1012.3
20260502232523 76 151 0.9 1.7 0.00 0.00 0.00 55 1012.5
20260502232020 76 179 0.0 0.9 0.00 0.00 0.00 55 1012.7
20260502231517 75 188 0.9 1.7 0.00 0.00 0.00 55 1012.6
20260502231015 75 165 0.9 1.7 0.00 0.00 0.00 56 1012.8
20260502230513 74 199 0.0 1.7 0.00 0.00 0.00 57 1012.7
20260502230011 75 178 0.9 0.9 0.00 0.00 0.00 56 1013.1
20260502225511 74 170 0.0 1.7 0.00 0.00 0.00 58 1012.8
20260502225009 73 168 0.9 2.6 0.00 0.00 0.00 58 1013.1
20260502224505 73 166 0.9 1.7 0.00 0.00 0.00 59 1013.2
20260502224002 72 178 0.0 2.6 0.00 0.00 0.00 59 1013.3